"Pseudo-MPEC" for C1EHWT5

Created 2026 Apr 14 3:35:04 UT using Find_Orb

Click here for an explanation of pseudo-MPECs

 
 Astrometry: 
     C1EHWT5*1C2026 03 27.30617212 40 52.388+03 13 36.01   ~3R8Z 22.14GVNEOCPV00
     C1EHWT5 1C2026 03 27.31179212 40 52.284+03 14 07.94   ~3R8Z 22.42GVNEOCPV00
     C1EHWT5 1C2026 03 27.31737412 40 52.183+03 14 40.24   ~3R8Z 22.11GVNEOCPV00
     C1EHWT5 1C2026 03 27.32295412 40 52.093+03 15 12.35   ~3R8Z 21.79GVNEOCPV00
     C1EHWT5 KC2026 03 27.41364512 40 50.502+03 23 51.00   ~3RAZ 21.6 GWNEOCPH01
     C1EHWT5 KC2026 03 27.41748812 40 50.436+03 24 12.98   ~3RAZ 22.3 GWNEOCPH01

Station data:
(H01) Magdalena Ridge Observatory, Socorro  (N33.984833 W107.189333)  US/New
   Mexico.  Observers W. H. Ryan, E. V. Ryan. Measurer W. H. Ryan. 2.4-m
   f/8.9 reflector + CCD.
(V00) Kitt Peak-Bok  (N31.963125 W111.600190)  US/Arizona. Measurers T.
   Beuden, V. F. Carvajal, D. Fay, J. B. Fazekas, D. C. Fuls, A. R. Gibbs, A.
   D. Grauer, H. Gröller, J. K. Hogan, R. A. Kowalski, S. M. Larson, G. J.
   Leonard, D. Rankin, R. L. Seaman, F. C. Shelly, K. W. Wierzchoś. 2.25-m
   reflector + 4x4K mosaic CCD.

Orbital elements:  C1EHWT5
   Perihelion 2026 Apr 4.967204 +/- 63.7 TT = 23:12:46.3 (JD 2461135.467204)
Epoch 2026 Mar 27.0 TT = JDT 2461126.5   Earth MOID: 0.2766   Ma: 0.0463
M 354.419593052 +/- 34              (J2000 ecliptic)             AutoNEOCP
n   0.622312956 +/- 0.36            Peri.    9.544932 +/- 70
a   1.358720581 +/- 0.524           Node   183.613200 +/- 7
e   0.06309750 +/- 0.282            Incl.   26.518587 +/- 17
P   1.584/578.476d         H 24.14  G  0.15   U 12.1  SR
q 1.272988704 +/- 0.297    Q 1.444452457 +/- 30.1
From 6 observations 2026 Mar. 27 (2.7 hr); mean residual 0".10
Residuals in arcseconds: 
260327 V00  .11+  .07+    260327 V00  .10-  .04+    260327 H01  .08+  .01+    
260327 V00  .01-  .24-    260327 V00  .01-  .15+    260327 H01  .06-  .02-    

Ephemerides (geocentric):
Date (UTC) HH   RA             Dec           delta  r     elong  mag " sig PA
---- --------  ------------   ------------  ------ ------ -----  --- --------
2026 04 14 04  12 39 33.329   +27 25 59.60  .32522 1.2735 141.5 23.5  52d  90
2026 04 14 05  12 39 33.447   +27 28 28.94  .32542 1.2735 141.4 23.5  53d  91
2026 04 14 06  12 39 33.569   +27 30 58.00  .32562 1.2735 141.3 23.5  55d  91
2026 04 14 07  12 39 33.692   +27 33 26.78  .32582 1.2735 141.3 23.5  56d  92
2026 04 14 08  12 39 33.819   +27 35 55.28  .32602 1.2735 141.2 23.5  56d  92
2026 04 14 09  12 39 33.947   +27 38 23.50  .32622 1.2735 141.1 23.5  57d  92
2026 04 14 10  12 39 34.079   +27 40 51.44  .32642 1.2735 141.1 23.5  57d  92
2026 04 14 11  12 39 34.212   +27 43 19.10  .32662 1.2735 141.0 23.5  57d  92
2026 04 14 12  12 39 34.348   +27 45 46.48  .32682 1.2735 140.9 23.5  57d  92
2026 04 14 13  12 39 34.487   +27 48 13.58  .32702 1.2735 140.9 23.5  57d  92
2026 04 14 14  12 39 34.629   +27 50 40.40  .32722 1.2735 140.8 23.5  58d  92
2026 04 14 15  12 39 34.772   +27 53 06.94  .32742 1.2735 140.7 23.5  58d  92
2026 04 14 16  12 39 34.919   +27 55 33.20  .32762 1.2735 140.7 23.5  58d  92
2026 04 14 17  12 39 35.068   +27 57 59.19  .32783 1.2735 140.6 23.5  58d  92
2026 04 14 18  12 39 35.219   +28 00 24.89  .32803 1.2735 140.6 23.5  58d  92
2026 04 14 19  12 39 35.373   +28 02 50.32  .32823 1.2735 140.5 23.6  58d  92
2026 04 14 20  12 39 35.530   +28 05 15.47  .32843 1.2735 140.4 23.6  58d  92
2026 04 14 21  12 39 35.689   +28 07 40.34  .32864 1.2736 140.4 23.6  58d  91
2026 04 14 22  12 39 35.851   +28 10 04.93  .32884 1.2736 140.3 23.6  59d  91
2026 04 14 23  12 39 36.016   +28 12 29.24  .32904 1.2736 140.2 23.6  59d  91
2026 04 15 00  12 39 36.183   +28 14 53.28  .32925 1.2736 140.2 23.6  60d  90
2026 04 15 01  12 39 36.352   +28 17 17.04  .32945 1.2736 140.1 23.6  60d  90
2026 04 15 02  12 39 36.524   +28 19 40.52  .32966 1.2736 140.0 23.6  60d  90
2026 04 15 03  12 39 36.699   +28 22 03.72  .32986 1.2736 140.0 23.6  60d  90
2026 04 15 04  12 39 36.877   +28 24 26.65  .33007 1.2736 139.9 23.6  60d  90
2026 04 15 05  12 39 37.057   +28 26 49.29  .33027 1.2736 139.9 23.6  61d  90
2026 04 15 06  12 39 37.240   +28 29 11.67  .33048 1.2736 139.8 23.6  61d  90
2026 04 15 07  12 39 37.425   +28 31 33.76  .33069 1.2736 139.7 23.6  61d  90
2026 04 15 08  12 39 37.613   +28 33 55.58  .33089 1.2736 139.7 23.6  61d  90
2026 04 15 09  12 39 37.804   +28 36 17.12  .33110 1.2736 139.6 23.6  61d  90
2026 04 15 10  12 39 37.997   +28 38 38.38  .33131 1.2736 139.5 23.6  61d  91
2026 04 15 11  12 39 38.193   +28 40 59.37  .33151 1.2736 139.5 23.6  61d  91
2026 04 15 12  12 39 38.392   +28 43 20.09  .33172 1.2736 139.4 23.6  61d  91
2026 04 15 13  12 39 38.594   +28 45 40.52  .33193 1.2736 139.4 23.6  61d  91
2026 04 15 14  12 39 38.798   +28 48 00.68  .33214 1.2736 139.3 23.6  61d  91
2026 04 15 15  12 39 39.005   +28 50 20.57  .33235 1.2736 139.2 23.6  61d  91
2026 04 15 16  12 39 39.214   +28 52 40.18  .33255 1.2736 139.2 23.6  61d  91
2026 04 15 17  12 39 39.426   +28 54 59.52  .33276 1.2737 139.1 23.6  61d  91
2026 04 15 18  12 39 39.641   +28 57 18.58  .33297 1.2737 139.0 23.6  61d  91
2026 04 15 19  12 39 39.859   +28 59 37.36  .33318 1.2737 139.0 23.6  61d  91
2026 04 15 20  12 39 40.080   +29 01 55.88  .33339 1.2737 138.9 23.6  61d  91
2026 04 15 21  12 39 40.303   +29 04 14.11  .33360 1.2737 138.9 23.6  61d  91
2026 04 15 22  12 39 40.529   +29 06 32.08  .33381 1.2737 138.8 23.6  61d  91
2026 04 15 23  12 39 40.757   +29 08 49.76  .33402 1.2737 138.7 23.6  61d  91
2026 04 16 00  12 39 40.989   +29 11 07.18  .33423 1.2737 138.7 23.6  61d  91
2026 04 16 01  12 39 41.223   +29 13 24.32  .33445 1.2737 138.6 23.6  61d  91
2026 04 16 02  12 39 41.460   +29 15 41.19  .33466 1.2737 138.6 23.6  61d  91
2026 04 16 03  12 39 41.700   +29 17 57.78  .33487 1.2737 138.5 23.6  61d  91